TimeMDT,TemperatureF,Dew PointF,Humidity,Sea Level PressureIn,VisibilityMPH,Wind Direction,Wind SpeedMPH,Gust SpeedMPH,PrecipitationIn,Events,Conditions,WindDirDegrees,DateUTC
12:15 AM,57.7,37.2,46,30.12,10.0,East,3.5,-,N/A,,Clear,90,2013-07-21 06:15:00
12:35 AM,56.5,36.3,47,30.12,10.0,Calm,Calm,-,N/A,,Clear,0,2013-07-21 06:35:00
12:55 AM,55.9,36.9,49,30.12,10.0,East,5.8,-,N/A,,Clear,100,2013-07-21 06:55:00
1:15 AM,54.3,36.5,51,30.12,10.0,Calm,Calm,-,N/A,,Clear,0,2013-07-21 07:15:00
1:35 AM,54.0,38.5,56,30.13,10.0,Calm,Calm,-,N/A,,Clear,0,2013-07-21 07:35:00
1:55 AM,54.0,37.0,53,30.13,10.0,Calm,Calm,-,N/A,,Clear,0,2013-07-21 07:55:00
2:15 AM,53.1,36.1,53,30.12,10.0,Calm,Calm,-,N/A,,Clear,0,2013-07-21 08:15:00
2:35 AM,52.7,36.9,55,30.13,10.0,Calm,Calm,-,N/A,,Clear,0,2013-07-21 08:35:00
2:55 AM,50.2,35.2,57,30.13,10.0,NW,3.5,-,N/A,,Clear,320,2013-07-21 08:55:00
3:15 AM,51.8,32.7,48,30.13,10.0,NE,3.5,-,N/A,,Clear,50,2013-07-21 09:15:00
3:35 AM,51.8,31.8,47,30.12,10.0,Calm,Calm,-,N/A,,Clear,0,2013-07-21 09:35:00
3:55 AM,50.0,32.0,50,30.13,10.0,Calm,Calm,-,N/A,,Clear,0,2013-07-21 09:55:00
4:15 AM,48.4,33.4,56,30.13,10.0,Calm,Calm,-,N/A,,Clear,0,2013-07-21 10:15:00
4:35 AM,49.6,30.9,49,30.13,10.0,Calm,Calm,-,N/A,,Clear,0,2013-07-21 10:35:00
4:55 AM,48.7,30.9,50,30.14,10.0,Calm,Calm,-,N/A,,Clear,0,2013-07-21 10:55:00
5:15 AM,47.7,32.7,56,30.14,10.0,Calm,Calm,-,N/A,,Clear,0,2013-07-21 11:15:00
5:35 AM,45.9,32.4,59,30.14,10.0,Calm,Calm,-,N/A,,Clear,0,2013-07-21 11:35:00
5:55 AM,47.1,32.5,57,30.14,10.0,Calm,Calm,-,N/A,,Clear,0,2013-07-21 11:55:00
6:15 AM,46.4,32.2,58,30.15,10.0,Calm,Calm,-,N/A,,Clear,0,2013-07-21 12:15:00
6:35 AM,46.2,31.5,56,30.16,10.0,Calm,Calm,-,N/A,,Clear,0,2013-07-21 12:35:00
6:55 AM,48.2,32.4,54,30.16,10.0,Calm,Calm,-,N/A,,Clear,0,2013-07-21 12:55:00
7:15 AM,49.3,32.5,53,30.16,10.0,Calm,Calm,-,N/A,,Clear,0,2013-07-21 13:15:00
7:35 AM,52.0,34.0,50,30.17,10.0,Calm,Calm,-,N/A,,Clear,0,2013-07-21 13:35:00
7:55 AM,54.7,31.6,42,30.17,10.0,Calm,Calm,-,N/A,,Clear,0,2013-07-21 13:55:00
8:15 AM,56.5,30.0,36,30.17,10.0,Calm,Calm,-,N/A,,Clear,0,2013-07-21 14:15:00
8:35 AM,58.1,33.4,39,30.17,10.0,Calm,Calm,-,N/A,,Clear,0,2013-07-21 14:35:00
8:55 AM,61.3,33.1,35,30.18,10.0,Calm,Calm,-,N/A,,Clear,0,2013-07-21 14:55:00
9:15 AM,63.1,34.2,34,30.18,10.0,Calm,Calm,-,N/A,,Clear,0,2013-07-21 15:15:00
9:35 AM,65.7,32.5,29,30.17,10.0,Calm,Calm,-,N/A,,Clear,0,2013-07-21 15:35:00
9:55 AM,69.1,32.4,26,30.17,10.0,Calm,Calm,-,N/A,,Clear,0,2013-07-21 15:55:00
10:15 AM,70.9,31.5,23,30.17,10.0,Calm,Calm,-,N/A,,Clear,0,2013-07-21 16:15:00
10:35 AM,74.1,31.8,21,30.17,10.0,Calm,Calm,-,N/A,,Clear,0,2013-07-21 16:35:00
10:55 AM,76.5,28.2,17,30.17,10.0,Calm,Calm,-,N/A,,Clear,0,2013-07-21 16:55:00
11:15 AM,78.8,20.8,12,30.17,10.0,Calm,Calm,-,N/A,,Clear,0,2013-07-21 17:15:00
11:35 AM,79.2,15.4,9,30.17,10.0,Calm,Calm,-,N/A,,Clear,0,2013-07-21 17:35:00
11:55 AM,81.0,10.9,7,30.16,10.0,SSW,4.6,-,N/A,,Clear,210,2013-07-21 17:55:00
12:15 PM,82.2,7.0,6,30.16,10.0,Calm,Calm,-,N/A,,Clear,0,2013-07-21 18:15:00
12:35 PM,83.1,10.8,7,30.15,10.0,SW,3.5,-,N/A,,Clear,220,2013-07-21 18:35:00
12:55 PM,84.0,11.7,7,30.14,10.0,Calm,Calm,-,N/A,,Clear,0,2013-07-21 18:55:00
1:15 PM,85.3,13.5,7,30.13,10.0,Calm,Calm,-,N/A,,Clear,0,2013-07-21 19:15:00
1:35 PM,86.7,14.2,7,30.12,10.0,South,10.4,-,N/A,,Clear,190,2013-07-21 19:35:00
1:55 PM,86.5,10.8,6,30.12,10.0,South,3.5,-,N/A,,Clear,190,2013-07-21 19:55:00
2:15 PM,87.4,9.9,5,30.11,10.0,SSW,15.0,20.7,N/A,,Clear,200,2013-07-21 20:15:00
2:35 PM,88.5,1.4,4,30.10,10.0,West,8.1,17.3,N/A,,Clear,260,2013-07-21 20:35:00
2:55 PM,89.8,-1.1,4,30.10,10.0,West,9.2,21.9,N/A,,Clear,270,2013-07-21 20:55:00
3:15 PM,89.6,1.4,4,30.10,10.0,WSW,11.5,19.6,N/A,,Clear,250,2013-07-21 21:15:00
3:35 PM,89.8,2.7,4,30.09,10.0,SW,11.5,19.6,N/A,,Clear,230,2013-07-21 21:35:00
3:55 PM,90.0,-0.4,4,30.09,10.0,WSW,9.2,19.6,N/A,,Clear,240,2013-07-21 21:55:00
4:15 PM,90.3,1.0,4,30.09,10.0,SW,8.1,-,N/A,,Clear,220,2013-07-21 22:15:00
4:35 PM,90.0,1.4,4,30.08,10.0,West,8.1,-,N/A,,Clear,260,2013-07-21 22:35:00
4:55 PM,86.9,3.4,4,30.07,10.0,WNW,12.7,18.4,N/A,,Clear,290,2013-07-21 22:55:00
5:15 PM,88.2,7.2,5,30.07,10.0,NW,8.1,-,N/A,,Clear,310,2013-07-21 23:15:00
5:35 PM,89.4,5.7,4,30.07,10.0,WNW,6.9,-,N/A,,Clear,300,2013-07-21 23:35:00
5:55 PM,89.8,4.5,4,30.07,10.0,WSW,6.9,-,N/A,,Clear,250,2013-07-21 23:55:00
6:15 PM,88.7,3.6,4,30.06,10.0,West,6.9,-,N/A,,Clear,270,2013-07-22 00:15:00
6:35 PM,83.1,16.2,8,30.06,10.0,SSW,3.5,-,N/A,,Clear,200,2013-07-22 00:35:00
6:55 PM,84.2,10.2,6,30.06,10.0,South,3.5,-,N/A,,Clear,180,2013-07-22 00:55:00
7:15 PM,83.5,20.3,10,30.06,10.0,Calm,Calm,-,N/A,,Clear,0,2013-07-22 01:15:00
7:35 PM,82.8,22.6,11,30.06,10.0,Calm,Calm,-,N/A,,Clear,0,2013-07-22 01:35:00
7:55 PM,79.7,22.5,12,30.07,10.0,Calm,Calm,-,N/A,,Clear,0,2013-07-22 01:55:00
8:15 PM,76.5,26.8,16,30.07,10.0,Calm,Calm,-,N/A,,Clear,0,2013-07-22 02:15:00
8:35 PM,74.8,32.2,21,30.08,10.0,Calm,Calm,-,N/A,,Clear,0,2013-07-22 02:35:00
8:55 PM,74.3,25.9,17,30.09,10.0,East,5.8,-,N/A,,Clear,90,2013-07-22 02:55:00
9:15 PM,71.8,31.5,23,30.09,10.0,East,6.9,-,N/A,,Clear,90,2013-07-22 03:15:00
9:35 PM,72.5,31.5,22,30.10,10.0,ESE,4.6,-,N/A,,Clear,120,2013-07-22 03:35:00
9:55 PM,71.2,30.2,22,30.11,10.0,Calm,Calm,-,N/A,,Clear,0,2013-07-22 03:55:00
10:15 PM,68.9,31.5,25,30.12,10.0,ESE,3.5,-,N/A,,Clear,110,2013-07-22 04:15:00
10:35 PM,68.0,31.3,26,30.12,10.0,Calm,Calm,-,N/A,,Clear,0,2013-07-22 04:35:00
10:55 PM,68.2,30.2,24,30.12,10.0,South,4.6,-,N/A,,Clear,180,2013-07-22 04:55:00
11:15 PM,64.6,31.5,29,30.14,10.0,NNE,5.8,-,N/A,,Clear,20,2013-07-22 05:15:00
11:35 PM,66.4,29.5,25,30.13,10.0,East,8.1,-,N/A,,Clear,80,2013-07-22 05:35:00
11:55 PM,66.6,30.2,26,30.13,10.0,ESE,5.8,-,N/A,,Clear,110,2013-07-22 05:55:00